Home   Weather   Kashan   Past weeks

Flag for Iran Past Weather in Kashan, Iran — Yesterday and Last 2 Weeks

Now
79 °F

Clear.


Feels Like: 78 °F
Forecast: 57 / 93 °F
Wind: No wind

Location: Kashan Airport

Current Time: Sep 25, 2016 at 10:38:29 PM

Latest Report: Sep 25, 2016 at 8:30 PM


Visibility: 10 mi

Pressure: 29.83 "Hg (26.80 "Hg at 939m altitude)

Humidity: 28%

Dew Point: 43 °F

Location of KashanLocation

Past Weather in Kashan — Graph

°F

Kashan Temperature Yesterday

Maximum temperature yesterday: 97 °F (at 4:30 PM)
Minimum temperature yesterday: 66 °F (at 5:30 AM)
Average temperature yesterday: 83 °F

High & Low Weather Summary for the Past Weeks

 TemperatureHumidityPressure
High102 °F (Sep 15, 3:30 PM)47% (Sep 25, 7:30 AM)30.01 "Hg (Sep 25, 7:30 AM)
Low66 °F (Sep 22, 5:30 AM)7% (Sep 20, 8:30 PM)29.71 "Hg (Sep 24, 4:30 PM)
Average83 °F25%29.88 "Hg
* Reported Sep 10 9:30 PM — Sep 25 8:30 PM, Kashan, Weather by CustomWeather, © 2016

Note: Actual official high and low records may vary slightly from our data, if they occured in-between our weather recording intervals... More about our weather records

Advertising

Kashan Weather History for the Previous 24 Hours

Scroll right to see more
 ConditionsComfort  
Time TempWeatherWind HumidityBarometerVisibility
8:30 PM
Sun, Sep 25
79 °FClear.No wind28%29.83 "Hg10 mi
7:30 PM79 °FClear.No wind32%29.83 "Hg10 mi
5:30 PM90 °FSunny.5 mph22%29.80 "Hg10 mi
4:30 PM90 °FSunny.7 mph21%29.80 "Hg10 mi
2:30 PM90 °FSunny.5 mph20%29.83 "Hg10 mi
1:30 PM88 °FSunny.12 mph21%29.86 "Hg10 mi
11:30 AM81 °FSunny.No wind26%29.92 "Hg10 mi
10:30 AM81 °FSunny.No wind26%29.92 "Hg10 mi
8:30 AM73 °FSunny.12 mph38%29.92 "Hg10 mi
7:30 AM72 °FSunny.12 mph47%29.89 "Hg10 mi
5:30 AM72 °FClear.No wind33%29.83 "Hg10 mi
4:30 AM72 °FClear.No wind33%29.83 "Hg10 mi
2:30 AM72 °FClear.No wind29%29.86 "Hg10 mi
1:30 AM73 °FClear.No wind27%29.86 "Hg10 mi
11:30 PM
Sat, Sep 24
82 °FClear.9 mph20%29.77 "Hg10 mi
10:30 PM77 °FClear.No wind28%29.77 "Hg10 mi
Weather by CustomWeather, © 2016

See weather overviewHow to use our weather pages